[[{"header":{"parameterUnit":"m.s-1","parameterCategory":1,"la1":30.2991,"la2":30.254,"lo1":-89.0895,"lo2":-89.0444,"dy":0.0017,"dx":0.0017,"nx":28,"ny":28,"refTime":"2024-05-30T03:00:00:Z","depth":0,"parameterNumber":2,"parameterNumberName":"U-component_of_WINDS"},"data":[0,0,0,0,0,0,0,0,0,0,0,0,0,0,0,0,0,0,0,0,0,0,0,0,0,0,0,0,0,0,0,0,0,0,0,0,0,0,0,0,0,0,0,0,0,0,0,0,0,0,0,0,0,0,0,0,0,0,-4.8872,-4.8872,0,-4.8891,-4.8891,-4.8891,-4.8827,-4.8825,-4.8823,-4.8821,-4.884,-4.8842,-4.8844,0,0,0,0,0,0,0,0,0,0,0,0,0,-4.8781,-4.8783,-4.8872,-4.8872,-4.8872,-4.8891,-4.8891,-4.8891,-4.8827,-4.8825,-4.8822,-4.882,-4.8839,-4.8842,-4.8845,0,0,0,0,0,0,0,0,0,0,0,0,0,-4.8812,-4.8783,-4.8872,-4.8842,-4.884,-4.8891,-4.8891,-4.8891,-4.8828,-4.8825,-4.8822,-4.8819,-4.8838,-4.8842,-4.8845,-4.8925,0,0,-4.8856,-4.8857,0,0,0,0,0,0,0,0,-4.881,-4.8815,-4.8847,-4.8845,-4.8842,-4.8854,-4.8866,-4.8903,-4.8828,-4.8832,-4.8821,-4.8818,-4.8847,-4.8849,-4.8859,-4.8926,-4.8926,-4.8856,-4.8858,-4.8859,-4.886,0,0,0,0,0,0,0,-4.8808,-4.8814,-4.8879,-4.8847,-4.8844,-4.8829,-4.883,-4.8873,-4.8856,-4.8832,-4.8827,-4.883,-4.8845,-4.8856,-4.8859,-4.8927,-4.8856,-4.8859,-4.8861,-4.8862,-4.9061,-4.9064,0,0,0,0,0,0,-4.881,-4.8813,-4.8879,-4.888,-4.8819,-4.8833,-4.8834,-4.8853,-4.8855,-4.8853,-4.8833,-4.8827,-4.8852,-4.8855,-4.886,-4.8953,-4.8859,-4.8863,-4.8865,-4.9057,-4.9061,-4.9065,0,0,0,0,0,0,-4.8808,-4.8816,-4.8878,-4.8845,-4.8852,-4.8837,-4.8859,-4.8855,-4.8866,-4.8856,-4.8852,-4.8847,-4.8849,-4.8855,-4.8909,-4.8952,-4.8864,-4.8867,-4.9054,-4.9059,-4.9063,-4.914,0,0,0,0,0,0,-4.8806,-4.8816,-4.8846,-4.8846,-4.8854,-4.8927,-4.8862,-4.8857,-4.8872,-4.8865,-4.8868,-4.8866,-4.8848,-4.8904,-4.8913,-4.8956,-4.887,-4.905,-4.9056,-4.9061,-4.9133,-4.9147,-4.9158,0,0,0,0,0,-4.8803,-4.8866,-4.8847,-4.8856,-4.889,-4.8929,-4.8934,-4.8911,-4.8876,-4.8905,-4.89,-4.8866,-4.8947,-4.8911,-4.8919,-4.8964,-4.9047,-4.9054,-4.9061,-4.9128,-4.9144,-4.9158,0,0,0,0,0,0,-4.887,-4.8865,-4.8845,-4.891,-4.8921,-4.8918,-4.8955,-4.8929,-4.895,-4.8942,-4.8914,-4.8915,-4.8975,-4.8975,-4.8934,-4.9042,-4.8991,-4.9,-4.9039,-4.9054,-4.9066,-4.9063,-4.8873,0,0,0,0,0,-4.8892,-4.8924,-4.8919,-4.8977,-4.8984,-4.8969,-4.8985,-4.8967,-4.8977,-4.8981,-4.8979,-4.899,-4.9018,-4.9036,-4.9061,-4.9135,-4.9134,-4.917,-4.9182,-4.9192,-4.92,-4.9239,-4.9254,-4.9088,-4.9088,-4.9088,0,0,-4.8938,-4.894,-4.8962,-4.8991,-4.8997,-4.9031,-4.8973,-4.9011,-4.9036,-4.8987,-4.9037,-4.9037,-4.9047,-4.9112,-4.914,-4.9114,-4.9246,-4.9202,-4.921,-4.9211,-4.9248,-4.9263,-4.9277,-4.9093,-4.9092,-4.9091,0,0,-4.904,-4.9045,-4.9094,-4.9102,-4.9113,-4.9103,-4.9115,-4.9118,-4.9116,-4.9167,-4.9131,-4.9161,-4.921,-4.9218,-4.9229,-4.9339,-4.9308,-4.9348,-4.9411,-4.945,-4.9463,-4.9474,-4.9512,-4.9526,-4.9356,-4.9356,-4.9356,0,-4.9095,-4.9145,-4.9122,-4.9163,-4.9177,-4.9136,-4.9186,-4.9195,-4.9213,-4.9224,-4.9196,-4.9257,-4.9261,-4.9327,-4.9354,-4.9365,-4.9377,-4.9345,-4.9463,-4.9474,-4.9484,-4.952,-4.9534,-4.9361,-4.936,-4.936,-4.9359,0,-4.9213,-4.9248,-4.9287,-4.9306,-4.9325,-4.937,-4.9355,-4.9377,-4.9359,-4.9353,-4.9406,-4.9411,-4.9436,-4.9451,-4.9434,-4.9516,-4.9499,-4.9468,-4.9415,-4.9505,-4.9538,-4.9552,-4.9367,-4.9366,-4.9364,-4.9363,0,0,-4.9352,-4.9361,-4.9375,-4.9384,-4.9395,-4.9422,-4.9467,-4.9492,-4.9511,-4.9527,-4.9563,-4.9607,-4.9579,-4.9591,-4.9575,-4.9609,-4.9695,-4.9573,-4.9573,-4.9594,-4.9785,-4.9806,-4.9823,-4.9677,-4.9679,-4.9681,-4.9783,0,-4.945,-4.9525,-4.9508,-4.9583,-4.9615,-4.9579,-4.9618,-4.9629,-4.9626,-4.9653,-4.9649,-4.9681,-4.9641,-4.9649,-4.9681,-4.9677,-4.9732,-4.967,-4.9709,-4.9711,-4.9704,-4.984,-4.9863,-4.9958,-4.9796,-4.9798,-4.98,0,-4.9573,-4.9594,-4.9672,-4.9679,-4.9692,-4.9727,-4.9751,-4.9778,-4.9791,-4.9786,-4.9802,-4.978,-4.9825,-4.9775,-4.9836,-4.9795,-4.981,-4.9812,-4.9815,-4.9815,-4.9758,-4.9842,-4.9989,-5.0002,-4.982,-4.9819,-4.9817,0,-4.9665,-4.9714,-4.9766,-4.9776,-4.9785,-4.9811,-4.9816,-4.9826,-4.9844,-4.9865,-4.9876,-4.9902,-4.9916,-4.9937,-4.9923,-4.9888,-4.9987,-4.9936,-4.9983,-4.9984,-5.0002,-5.0001,-5.0151,-5.0017,-5.0017,-5.0017,-5.0017,0,-4.9775,-4.9824,-4.9808,-4.984,-4.9894,-4.9876,-4.993,-4.9931,-4.9941,-4.9973,-4.9945,-4.9976,-4.9957,-4.9987,-4.9977,-5.0029,-5.0036,-5.0033,-5.0029,-5.0034,-5.0034,-5.0041,-5.0033,-5.0021,-5.002,-5.0019,-5.0019,0,-4.9885,-4.9876,-4.9931,-4.9938,-4.9941,-4.998,-4.9985,-5.0016,-5.0012,-5.0053,-5.0062,-5.0056,-5.0089,-5.0079,-5.0115,-5.0108,-5.0174,-5.0163,-5.017,-5.0166,-5.0213,-5.0208,-5.0371,-5.0391,-5.0247,-5.0248,-5.025,0,-4.9954,-4.999,-5.0001,-5.0021,-5.0029,-5.0061,-5.0079,-5.0064,-5.0084,-5.0103,-5.0131,-5.0163,-5.0187,-5.0243,-5.0242,-5.027,-5.0258,-5.0314,-5.0262,-5.0266,-5.0257,-5.0254,-5.0257,-5.0323,-5.0324,-5.0326,-5.0327,0,-5.0077,-5.0071,-5.0098,-5.0126,-5.0148,-5.0168,-5.0186,-5.0204,-5.019,-5.0214,-5.0249,-5.0268,-5.0306,-5.0338,-5.0364,-5.037,-5.0346,-5.0344,-5.0356,-5.036,-5.0361,-5.0359,-5.0195,-5.0339,-5.0338,-5.0337,-5.0336,-5.0336,-5.0167,-5.0198,-5.0211,-5.0243,-5.0255,-5.0273,-5.0302,-5.0303,-5.0332,-5.0361,-5.0351,-5.0391,-5.0405,-5.0438,-5.0448,-5.0479,-5.0458,-5.0476,-5.048,-5.0484,-5.0489,-5.0359,-5.0484,-5.0484,-5.0484,-5.0483,-5.0483,0,-5.0286,-5.0294,-5.0324,-5.035,-5.0376,-5.0353,-5.0372,-5.0395,-5.0431,-5.0446,-5.0471,-5.0512,-5.0544,-5.0546,-5.0576,-5.0601,-5.0591,-5.0609,-5.0605,-5.0607,-5.0507,-5.0493,-5.0617,-5.0617,-5.0617,-5.0617,-5.0617,-5.0617,-5.0352,-5.0403,-5.0401,-5.0459,-5.0466,-5.0505,-5.0518,-5.0535,-5.0547,-5.0594,-5.062,-5.0622,-5.0633,-5.0664,-5.0692,-5.0693,-5.0704,-5.0726,-5.0722,-5.0628,-5.0614,-5.0601,-5.0588,-5.0729,-5.0729,-5.0819,-5.082,-5.082]},{"header":{"parameterUnit":"m.s-1","parameterCategory":1,"la1":30.2991,"la2":30.254,"lo1":-89.0895,"lo2":-89.0444,"dy":0.0017,"dx":0.0017,"nx":28,"ny":28,"refTime":"2024-05-30T03:00:00:Z","depth":0,"parameterNumber":3,"parameterNumberName":"V-component_of_WINDS"},"data":[0,0,0,0,0,0,0,0,0,0,0,0,0,0,0,0,0,0,0,0,0,0,0,0,0,0,0,0,0,0,0,0,0,0,0,0,0,0,0,0,0,0,0,0,0,0,0,0,0,0,0,0,0,0,0,0,0,0,4.1287,4.1288,0,4.1327,4.1328,4.1328,4.1368,4.1368,4.1369,4.1369,4.1406,4.1406,4.1406,0,0,0,0,0,0,0,0,0,0,0,0,0,4.1243,4.1244,4.1287,4.1288,4.1288,4.1327,4.1328,4.1328,4.1367,4.1368,4.1369,4.1369,4.1405,4.1406,4.1406,0,0,0,0,0,0,0,0,0,0,0,0,0,4.127,4.1244,4.1287,4.1313,4.1316,4.1327,4.1328,4.1328,4.1367,4.1368,4.1369,4.137,4.1405,4.1406,4.1407,4.1395,0,0,4.1409,4.1409,0,0,0,0,0,0,0,0,4.1269,4.1272,4.1309,4.1311,4.1314,4.1343,4.1325,4.135,4.1367,4.1347,4.1369,4.137,4.1384,4.1386,4.1392,4.1396,4.1398,4.1409,4.1409,4.1409,4.141,0,0,0,0,0,0,0,4.1267,4.127,4.1303,4.1309,4.1312,4.1321,4.1326,4.133,4.136,4.1349,4.1352,4.1357,4.1386,4.1391,4.1393,4.1398,4.1409,4.1409,4.141,4.141,4.1397,4.1396,0,0,0,0,0,0,4.1261,4.1269,4.1302,4.1304,4.1293,4.1322,4.1327,4.1333,4.1361,4.1366,4.1356,4.1358,4.139,4.1392,4.1394,4.1383,4.1409,4.141,4.1411,4.1398,4.1397,4.1396,0,0,0,0,0,0,4.126,4.1264,4.13,4.1287,4.1293,4.1322,4.1328,4.1333,4.1339,4.1366,4.1371,4.1356,4.139,4.1393,4.1395,4.1385,4.141,4.1411,4.1398,4.1397,4.1396,4.136,0,0,0,0,0,0,4.1259,4.1263,4.126,4.1287,4.1293,4.1301,4.1327,4.1334,4.1341,4.1344,4.1367,4.1372,4.1391,4.1394,4.1396,4.1387,4.1412,4.1399,4.1398,4.1397,4.1362,4.1358,4.1354,0,0,0,0,0,4.1257,4.1247,4.1259,4.1263,4.1289,4.13,4.1303,4.1327,4.134,4.1336,4.1353,4.1371,4.1386,4.1394,4.1396,4.1387,4.14,4.1398,4.1397,4.1364,4.1359,4.1354,0,0,0,0,0,0,4.1215,4.125,4.1265,4.1263,4.1279,4.1307,4.1302,4.132,4.1331,4.1334,4.1361,4.1366,4.1364,4.1376,4.1384,4.1378,4.1396,4.1394,4.137,4.1365,4.1361,4.1358,4.1412,0,0,0,0,0,4.1206,4.1213,4.1243,4.1238,4.1246,4.1273,4.1278,4.1295,4.1312,4.1318,4.1335,4.135,4.1358,4.1362,4.1371,4.1365,4.137,4.136,4.1356,4.1352,4.135,4.1349,4.1345,4.139,4.139,4.139,0,0,4.1186,4.1207,4.1209,4.1231,4.1245,4.125,4.1278,4.1282,4.1287,4.1318,4.1321,4.1335,4.1352,4.135,4.135,4.136,4.1339,4.135,4.1347,4.1347,4.1347,4.1342,4.1338,4.1389,4.1389,4.1389,0,0,4.1154,4.117,4.1169,4.1183,4.1205,4.1223,4.1223,4.1249,4.126,4.1264,4.1288,4.1293,4.1306,4.1318,4.1326,4.1301,4.1318,4.1303,4.1281,4.1279,4.1275,4.1272,4.1264,4.126,4.1301,4.1301,4.1301,0,4.1126,4.1137,4.1165,4.1169,4.1178,4.1209,4.1208,4.122,4.1242,4.1248,4.1259,4.1277,4.1291,4.1293,4.1287,4.1292,4.1292,4.13,4.1274,4.1271,4.1269,4.1261,4.1257,4.1299,4.1299,4.13,4.13,0,4.1103,4.111,4.1106,4.113,4.1139,4.1139,4.1167,4.1172,4.1189,4.1206,4.1211,4.1229,4.1243,4.1244,4.126,4.1249,4.1254,4.1269,4.1288,4.1262,4.1255,4.1252,4.1296,4.1297,4.1298,4.1298,0,0,4.1042,4.1084,4.1082,4.1094,4.1121,4.1127,4.113,4.1145,4.1149,4.1164,4.1167,4.1179,4.1194,4.1202,4.122,4.1218,4.1198,4.1234,4.1235,4.1227,4.1187,4.1175,4.1171,4.121,4.1209,4.1209,4.1186,0,4.1015,4.1023,4.105,4.105,4.1057,4.1088,4.1091,4.1107,4.1124,4.1132,4.115,4.1158,4.1177,4.1182,4.1182,4.12,4.119,4.1203,4.1212,4.1212,4.1206,4.1168,4.1155,4.1132,4.1183,4.1183,4.1182,0,4.0983,4.0998,4.1,4.1029,4.1033,4.1035,4.1052,4.106,4.1079,4.1092,4.1103,4.1123,4.1128,4.1146,4.1152,4.116,4.1165,4.1175,4.1175,4.1176,4.1195,4.1168,4.1125,4.1121,4.1178,4.1178,4.1179,0,4.0939,4.0961,4.0965,4.0974,4.1008,4.1009,4.1022,4.1043,4.1051,4.1066,4.1071,4.1085,4.1093,4.1103,4.1127,4.1137,4.113,4.115,4.114,4.1139,4.1136,4.1136,4.1094,4.114,4.114,4.114,4.114,0,4.0905,4.0905,4.0946,4.0948,4.0949,4.098,4.0979,4.0996,4.1015,4.102,4.1047,4.1052,4.1083,4.1091,4.1109,4.1112,4.1115,4.1124,4.1129,4.1122,4.112,4.1125,4.1127,4.1139,4.114,4.114,4.114,0,4.0856,4.0884,4.0891,4.0923,4.0931,4.0931,4.0958,4.0961,4.098,4.0987,4.0991,4.102,4.1031,4.1056,4.1073,4.1085,4.1083,4.1092,4.1077,4.108,4.1069,4.1069,4.1027,4.1024,4.1072,4.1072,4.1072,0,4.0832,4.0833,4.0867,4.0874,4.0887,4.0898,4.0907,4.0937,4.0945,4.0969,4.0969,4.0983,4.0995,4.1011,4.1033,4.1047,4.1056,4.1041,4.1058,4.1051,4.1056,4.1056,4.1056,4.1036,4.1036,4.1035,4.1035,0,4.0787,4.0802,4.0815,4.0834,4.0844,4.086,4.0876,4.088,4.0914,4.0922,4.0935,4.0945,4.0963,4.0976,4.0994,4.1007,4.1026,4.1029,4.1028,4.102,4.1011,4.1016,4.1066,4.103,4.103,4.1031,4.1031,4.1031,4.0751,4.0754,4.0778,4.0793,4.0809,4.0825,4.083,4.0851,4.0863,4.0882,4.0898,4.091,4.093,4.0956,4.0968,4.0977,4.0986,4.0984,4.0983,4.0982,4.0979,4.1011,4.098,4.098,4.098,4.098,4.098,0,4.0707,4.0726,4.0738,4.0762,4.0774,4.0794,4.0814,4.0821,4.0831,4.085,4.0863,4.0878,4.0891,4.0915,4.093,4.0933,4.0942,4.0935,4.0935,4.0938,4.0969,4.0969,4.0928,4.0928,4.0928,4.0928,4.0928,4.0928,4.0686,4.0693,4.071,4.0725,4.0743,4.0756,4.0766,4.078,4.0796,4.0812,4.0824,4.084,4.0861,4.0879,4.0892,4.0898,4.0902,4.0893,4.0902,4.0931,4.0936,4.094,4.0941,4.0894,4.0894,4.0871,4.0871,4.087]}]]